Location: Fort Collins
(40.5850°N, 105.0840°W)
Time: 22:31:25
(UTC-06:00)

Cosmos 2297 Rocket - Visible Passes

Search period start: 24 August 2016 00:00
Search period end: 03 September 2016 00:00
Orbit: 840 x 843 km, 71.0° (Epoch: 23 August)

Date Brightness Start Highest point End Pass type
(mag) Time Alt. Az. Time Alt. Az. Time Alt. Az.
24 Aug 2.1 21:20:14 10° NNW 21:25:55 87° ENE 21:28:59 29° SSE visible
24 Aug 4.7 23:07:12 10° WNW 23:09:06 12° W 23:10:48 10° WSW visible
25 Aug 2.1 21:05:09 10° NNW 21:10:50 83° ENE 21:14:38 22° SSE visible
25 Aug 4.7 22:51:46 10° WNW 22:54:03 13° W 22:56:19 10° WSW visible
26 Aug 2.1 20:50:04 10° NNW 20:55:44 79° ENE 21:00:22 16° SSE visible
26 Aug 4.7 22:36:23 10° WNW 22:39:00 13° W 22:41:36 10° SW visible
27 Aug 2.2 20:34:58 10° NNW 20:40:39 75° ENE 20:46:11 10° SSE visible
27 Aug 4.7 22:21:04 10° WNW 22:23:57 14° W 22:26:49 10° SW visible
28 Aug 2.2 20:19:53 10° NNW 20:25:33 71° ENE 20:31:10 10° SSE visible
28 Aug 4.7 22:05:46 10° WNW 22:08:53 15° W 22:12:01 10° SW visible
29 Aug 2.2 20:04:48 10° NNW 20:10:27 67° ENE 20:16:04 10° SSE visible
29 Aug 4.7 21:50:30 10° WNW 21:53:50 16° W 21:57:11 10° SW visible
30 Aug 4.7 21:35:15 10° WNW 21:38:47 17° W 21:42:20 10° SW visible
31 Aug 4.7 21:20:01 10° WNW 21:23:44 18° W 21:27:28 10° SW visible
01 Sep 4.7 21:04:47 10° NW 21:08:40 19° W 21:12:34 10° SW visible
02 Sep 4.6 20:49:34 10° NW 20:53:37 20° W 20:57:39 10° SSW visible
